Starlink 31996

operational
NORAD ID: 60100 Int'l Des: 2024-117 Owner: SPXS Country: US Constellation: starlink
LEOCIRCULAR

Über Starlink 31996

Beschreibung wird geladen...

Live-Position

3D-Globus wird geladen...

Nächste Überflüge

Höhenverlauf

Altitude vs Time

uPlot chart will show altitude changes over time

Zweizeiliger Elementsatz

1 60100U 24117K 25304.13081787 .00000093 00000-0 15280-4 0 9993
2 60100 53.1608 278.6825 0001473 82.6862 277.4306 15.30189768 77053
Epoch: 31. Okt. 2025 • Age: 10 hours

Aktueller Status

Höhe 491.7 km
Geschwindigkeit 7.62 km/s
Subsatellitenpunkt -45.66°S, 97.82°W
Startdatum 23. Juni 2024
Alter 1.3 years
Typ internet

Technische Details

Klassifizierung Payload
Masse 730.00 kg
Trockenmasse 700.00 kg
Gesamtmasse 730.00 kg
Länge 0.30 m
Durchmesser 4.10 m
Spannweite 29.00 m
Form Box + pan
Hersteller SPXS
Bus-Typ Starlink V2M
Phasenstatus In Orbit
Besitzer/Staat SPXS/US

Große Konstellationen

Loading constellations...